Meteo Giornale » Osservazioni meteo Stati Uniti (USA) » St Louis Lambert-St Louis
ore: 13:51 - Osservazioni Meteo St Louis Lambert-St Louis
Lat. 38° 45' N Lon. 90° 22' W Alt. 184 metri s.l.m.
36 °C
Poco Nuvoloso
Temp. 24 Ore
27 °C
37 °C
Ovest
7.4 Km/h
Dew point 19 °C
Umidità 36 %
Visibilità 10 Km
Il sole sorge alle ore 06:30
Il sole tramonta alle ore 19:31
| Data e Ora | Cielo e Fenomeni | T °C | DP °C | Um. % | Pres. hPa | Vis. km | Vento km/h | |
|---|---|---|---|---|---|---|---|---|
| Oggi h: 13:51 | Poco Nuvoloso | 36 | 19 | 36 | 1016 | 10 | O 7.4 | |
| Oggi h: 12:51 | Sereno | 35 | 21 | 44 | 1017 | 10 | O/SO 7.4 | |
| Oggi h: 11:51 | Sereno | 33 | 21 | 49 | 1018 | 10 | O 7.4 | |
| Oggi h: 10:51 | Sereno | 32 | 21 | 52 | 1018 | 10 | O/SO 20.3 | |
| Oggi h: 09:51 | Poco Nuvoloso | 31 | 21 | 55 | 1018 | 10 | O/SO 14.8 | |
| Oggi h: 08:51 | Poco Nuvoloso | 29 | 20 | 58 | 1018 | 10 | S/SO 18.5 | |
| Oggi h: 07:51 | Poco Nuvoloso | 27 | 20 | 65 | 1018 | 10 | SO 9.3 | |
| Oggi h: 06:51 | Poco Nuvoloso | 27 | 19 | 61 | 1017 | 10 | N 0 | |
| Oggi h: 05:51 | Poco Nuvoloso | 27 | 19 | 61 | 1017 | 10 | N 5.5 | |
| Oggi h: 04:51 | Sereno | 27 | 19 | 61 | 1017 | 10 | N 5.5 | |
| Oggi h: 03:51 | Sereno | 27 | 20 | 65 | 1016 | 10 | SO 11.1 | |
| Oggi h: 02:51 | Sereno | 28 | 20 | 61 | 1016 | 10 | S/SO 14.8 | |
| Oggi h: 01:51 | Sereno | 28 | 20 | 61 | 1016 | 10 | S/SO 9.3 | |
| Oggi h: 00:51 | Sereno | 29 | 20 | 58 | 1016 | 10 | S/SO 11.1 | |
| Ieri h: 23:51 | Sereno | 29 | 20 | 58 | 1016 | 10 | S/SO 13 | |
| Ieri h: 22:51 | Poco Nuvoloso | 30 | 19 | 51 | 1016 | 10 | S 14.8 | |
| Ieri h: 21:51 | Poco Nuvoloso | 31 | 20 | 52 | 1016 | 10 | S 14.8 | |
| Ieri h: 20:51 | Poco Nuvoloso | 32 | 19 | 46 | 1015 | 10 | S 13 | |
| Ieri h: 19:51 | Poco Nuvoloso | 33 | 18 | 41 | 1015 | 10 | SO 7.4 | |
| Ieri h: 18:51 | Nuvoloso | 34 | 19 | 41 | 1015 | 10 | O 11.1 | |
| Ieri h: 17:51 | Nuvoloso | 36 | 18 | 34 | 1015 | 10 | SO 13 | |
| Ieri h: 16:51 | Nuvoloso | 37 | 18 | 32 | 1015 | 10 | S 14.8 | |
| Ieri h: 15:51 | Poco Nuvoloso | 37 | 19 | 35 | 1015 | 10 | S/SO 11.1 | |
| Ieri h: 14:51 | Sereno | 36 | 20 | 39 | 1015 | 10 | N 7.4 | |



